Scottsbluff, NE

10:01 AM MDT on May 23, 2017 (GMT -0600)
Heilig

Weather History for KBFF - January, 2007

Change the Weather History Date:

Thursday, January 25, 2007

  Actual Average Record
Temperature  
Mean Temperature 38 °F 28 °F  
Max Temperature 53 °F 41 °F 69 °F (1935)
Min Temperature 23 °F 14 °F -18 °F (1963)
Degree Days  
Heating Degree Days 27 37  
Month to date heating degree days 1054 948  
Since 1 July heating degree days 3866 3720  
Cooling Degree Days 0 0  
Month to date cooling degree days 0 0  
Year to date cooling degree days 0 0  
Moisture  
Dew Point 25 °F    
Average Humidity 63    
Maximum Humidity 88    
Minimum Humidity 38    
Precipitation  
Precipitation 0.00 in 0.02 in 0.38 in (2009)
Month to date precipitation 0.11 0.33  
Year to date precipitation 0.11 0.33  
Snow  
Snow 0.00 in 0.20 in 5.30 in (1950)
Month to date snowfall 0.8 4.3  
Since 1 July snowfall 20.1 20.3  
Snow Depth 0.00 in    
Sea Level Pressure  
Sea Level Pressure 30.22 in    
Wind  
Wind Speed 6 mph (NW)    
Max Wind Speed 10 mph    
Max Gust Speed 13 mph    
Visibility 10 miles    
Events      
T = Trace of Precipitation, MM = Missing Value Source: NWS Daily Summary

Daily Weather History Graph

Daily Weather History Graph

Search for Another Location

Airport or City:

Trip Planner

Search our weather history database for the weather conditions in past years. The results will help you decide how hot, cold, wet, or windy it might be!

Date:

Astronomy

Jan. 25, 2007 Rise Set
Actual Time 7:13 AM MST 5:00 PM MST
Civil Twilight 6:43 AM MST 5:30 PM MST
Nautical Twilight 6:09 AM MST 6:04 PM MST
Astronomical Twilight 5:36 AM MST 6:37 PM MST
Moon 10:34 AM MST (1/25) No Moon Set
Length of Visible Light 10h 47m
Length of Day
9h 46m
Waxing Crescent, 48% of the Moon is Illuminated
Jan 25
Waxing Crescent
Jan 25
First Quarter
Feb 1
Full
Feb 10
Last Quarter
Feb 17
New

Hourly Weather History & Observations

Time (MST) Temp. Windchill Dew Point Humidity Pressure Visibility Wind Dir Wind Speed Gust Speed Precip Events Conditions
12:53 AM 28.0 °F 21.7 °F 24.1 °F 85% 30.32 in 10.0 mi NW 5.8 mph - N/A   Clear
1:53 AM 28.0 °F 21.7 °F 23.0 °F 81% 30.32 in 10.0 mi NW 5.8 mph - N/A   Clear
2:53 AM 28.9 °F 25.2 °F 23.0 °F 78% 30.32 in 10.0 mi Variable 3.5 mph - N/A   Clear
3:53 AM 27.0 °F 20.5 °F 21.9 °F 81% 30.32 in 10.0 mi NW 5.8 mph - N/A   Clear
4:53 AM 26.1 °F 18.4 °F 21.0 °F 81% 30.33 in 10.0 mi NNW 6.9 mph - N/A   Clear
5:53 AM 25.0 °F 16.3 °F 21.0 °F 85% 30.36 in 10.0 mi NNW 8.1 mph - N/A   Clear
6:53 AM 25.0 °F 16.3 °F 21.0 °F 85% 30.37 in 10.0 mi NW 8.1 mph - N/A   Clear
7:53 AM 26.1 °F 16.8 °F 21.0 °F 81% 30.37 in 10.0 mi NW 9.2 mph - N/A   Clear
8:53 AM 30.9 °F 23.5 °F 25.0 °F 79% 30.35 in 10.0 mi NW 8.1 mph - N/A   Clear
9:53 AM 37.0 °F 30.4 °F 26.1 °F 65% 30.34 in 10.0 mi NW 9.2 mph - N/A   Clear
10:53 AM 39.9 °F 35.1 °F 26.1 °F 58% 30.32 in 10.0 mi NW 6.9 mph - N/A   Clear
11:53 AM 45.0 °F 42.6 °F 28.0 °F 52% 30.27 in 10.0 mi NW 4.6 mph - N/A   Clear
12:53 PM 48.9 °F - 27.0 °F 43% 30.21 in 10.0 mi WNW 6.9 mph - N/A   Clear
1:53 PM 51.1 °F - 26.1 °F 38% 30.17 in 10.0 mi WNW 8.1 mph - N/A   Clear
2:53 PM 52.0 °F - 26.1 °F 37% 30.15 in 10.0 mi WNW 5.8 mph - N/A   Clear
3:53 PM 51.1 °F - 28.9 °F 43% 30.13 in 10.0 mi Calm Calm - N/A   Clear
4:53 PM 44.1 °F - 28.0 °F 53% 30.13 in 10.0 mi Calm Calm - N/A   Clear
5:53 PM 34.0 °F 29.8 °F 27.0 °F 75% 30.15 in 10.0 mi East 4.6 mph - N/A   Clear
6:53 PM 30.9 °F 24.3 °F 26.1 °F 82% 30.15 in 10.0 mi North 6.9 mph - N/A   Clear
7:53 PM 33.1 °F 28.7 °F 26.1 °F 75% 30.12 in 10.0 mi NNW 4.6 mph - N/A   Clear
8:53 PM 32.0 °F 26.4 °F 25.0 °F 75% 30.08 in 10.0 mi NNW 5.8 mph - N/A   Clear
9:53 PM 28.9 °F 23.9 °F 23.0 °F 78% 30.05 in 10.0 mi West 4.6 mph - N/A   Clear
10:53 PM 30.0 °F 26.5 °F 24.1 °F 79% 30.02 in 10.0 mi SW 3.5 mph - N/A   Clear
11:53 PM 26.1 °F 21.9 °F 21.9 °F 84% 29.99 in 10.0 mi WNW 3.5 mph - N/A   Clear